| time (UTC) | temp F | wind direction | speed MPH | gust MPH | rain 1hr in | rain 24hr in | rain mn in | humidity % | barometer mb |
| 20260507140326 | 56 | 0 | 1.0 | 6.0 | 0.00 | 0.46 | 0.14 | 79 | 1015.9 |
| 20260507135841 | 55 | 323 | 1.0 | 6.0 | 0.00 | 0.47 | 0.14 | 80 | 1015.9 |
| 20260507135325 | 55 | 5 | 2.0 | 6.0 | 0.00 | 0.47 | 0.14 | 81 | 1015.9 |
| 20260507135225 | 55 | 329 | 2.0 | 6.0 | 0.00 | 0.48 | 0.14 | 80 | 1016.0 |
| 20260507134320 | 55 | 327 | 2.0 | 6.0 | 0.00 | 0.48 | 0.14 | 80 | 1016.0 |
| 20260507133821 | 55 | 319 | 2.0 | 6.0 | 0.00 | 0.48 | 0.14 | 80 | 1015.9 |
| 20260507133321 | 55 | 9 | 2.0 | 8.0 | 0.00 | 0.48 | 0.14 | 79 | 1015.9 |
| 20260507132837 | 55 | 5 | 2.0 | 8.0 | 0.00 | 0.48 | 0.14 | 78 | 1016.0 |
| 20260507132321 | 55 | 355 | 1.0 | 8.0 | 0.00 | 0.48 | 0.14 | 79 | 1016.0 |
| 20260507131821 | 55 | 274 | 1.0 | 8.0 | 0.00 | 0.48 | 0.14 | 78 | 1016.0 |
| 20260507131741 | 56 | 336 | 1.0 | 6.0 | 0.00 | 0.48 | 0.14 | 78 | 1015.9 |
| 20260507130820 | 56 | 347 | 1.0 | 7.0 | 0.00 | 0.48 | 0.14 | 79 | 1015.9 |
| 20260507130321 | 56 | 355 | 1.0 | 7.0 | 0.00 | 0.48 | 0.14 | 78 | 1015.7 |
| 20260507125822 | 56 | 14 | 1.0 | 5.0 | 0.00 | 0.48 | 0.14 | 79 | 1015.8 |
| 20260507125323 | 54 | 9 | 2.0 | 5.0 | 0.00 | 0.48 | 0.14 | 81 | 1015.8 |
| 20260507124819 | 54 | 9 | 1.0 | 4.0 | 0.00 | 0.48 | 0.14 | 82 | 1015.7 |
| 20260507124322 | 53 | 0 | 1.0 | 4.0 | 0.00 | 0.48 | 0.14 | 83 | 1015.8 |
| 20260507123818 | 53 | 294 | 1.0 | 4.0 | 0.00 | 0.48 | 0.14 | 82 | 1015.8 |
| 20260507123320 | 53 | 13 | 0.0 | 5.0 | 0.00 | 0.48 | 0.14 | 82 | 1015.8 |
| 20260507122821 | 53 | 295 | 0.0 | 5.0 | 0.00 | 0.48 | 0.14 | 82 | 1015.8 |
| 20260507122319 | 53 | 298 | 1.0 | 5.0 | 0.00 | 0.48 | 0.14 | 83 | 1015.7 |
| 20260507122210 | 53 | 303 | 1.0 | 5.0 | 0.00 | 0.48 | 0.14 | 83 | 1015.8 |
| 20260507121648 | 54 | 79 | 1.0 | 5.0 | 0.00 | 0.48 | 0.14 | 84 | 1015.6 |
| 20260507121503 | 53 | 24 | 1.0 | 5.0 | 0.00 | 0.48 | 0.14 | 82 | 1015.7 |
| 20260507120314 | 53 | 355 | 1.0 | 5.0 | 0.00 | 0.48 | 0.14 | 83 | 1015.6 |
| 20260507115817 | 53 | 9 | 1.0 | 5.0 | 0.00 | 0.48 | 0.14 | 82 | 1015.6 |
| 20260507115709 | 53 | 350 | 0.0 | 3.0 | 0.00 | 0.48 | 0.14 | 83 | 1015.6 |
| 20260507115512 | 53 | 98 | 0.0 | 4.0 | 0.00 | 0.48 | 0.14 | 82 | 1015.6 |
| 20260507114308 | 53 | 194 | 0.0 | 4.0 | 0.00 | 0.48 | 0.14 | 84 | 1015.6 |
| 20260507113806 | 53 | 316 | 0.0 | 4.0 | 0.00 | 0.48 | 0.14 | 84 | 1015.7 |
| 20260507113308 | 52 | 316 | 0.0 | 0.0 | 0.00 | 0.48 | 0.14 | 86 | 1015.6 |
| 20260507113219 | 52 | 301 | 0.0 | 1.0 | 0.00 | 0.48 | 0.14 | 84 | 1015.6 |
| 20260507112306 | 52 | 300 | 0.0 | 6.0 | 0.00 | 0.48 | 0.14 | 84 | 1015.6 |
| 20260507111806 | 52 | 10 | 1.0 | 6.0 | 0.00 | 0.48 | 0.14 | 84 | 1015.7 |
| 20260507111303 | 52 | 5 | 2.0 | 6.0 | 0.00 | 0.48 | 0.14 | 84 | 1015.7 |
| 20260507110804 | 52 | 5 | 1.0 | 6.0 | 0.00 | 0.48 | 0.14 | 84 | 1015.7 |
| 20260507110745 | 53 | 5 | 1.0 | 6.0 | 0.00 | 0.48 | 0.14 | 84 | 1015.6 |
| 20260507110244 | 53 | 5 | 2.0 | 6.0 | 0.00 | 0.48 | 0.14 | 83 | 1015.6 |
| 20260507105302 | 53 | 332 | 2.0 | 6.0 | 0.00 | 0.48 | 0.14 | 83 | 1015.6 |
| 20260507104804 | 53 | 24 | 1.0 | 7.0 | 0.00 | 0.48 | 0.14 | 82 | 1015.6 |
| 20260507104711 | 53 | 343 | 1.0 | 7.0 | 0.00 | 0.48 | 0.14 | 83 | 1015.6 |
| 20260507103800 | 53 | 11 | 2.0 | 7.0 | 0.00 | 0.48 | 0.14 | 83 | 1015.6 |
| 20260507103259 | 53 | 342 | 2.0 | 7.0 | 0.00 | 0.48 | 0.14 | 84 | 1015.6 |
| 20260507102830 | 54 | 0 | 1.0 | 7.0 | 0.00 | 0.48 | 0.14 | 82 | 1015.5 |
| 20260507102806 | 53 | 344 | 2.0 | 7.0 | 0.00 | 0.48 | 0.14 | 83 | 1015.5 |
| 20260507101809 | 55 | 24 | 2.0 | 9.0 | 0.00 | 0.48 | 0.14 | 81 | 1015.4 |
| 20260507101259 | 54 | 9 | 2.0 | 9.0 | 0.00 | 0.48 | 0.14 | 79 | 1015.4 |
| 20260507100759 | 55 | 246 | 1.0 | 8.0 | 0.00 | 0.48 | 0.14 | 78 | 1015.4 |
| 20260507100301 | 54 | 102 | 0.0 | 6.0 | 0.00 | 0.48 | 0.14 | 82 | 1015.4 |
| 20260507100255 | 55 | 19 | 1.0 | 6.0 | 0.00 | 0.48 | 0.14 | 82 | 1015.3 |
| 20260507095255 | 54 | 318 | 0.0 | 5.0 | 0.00 | 0.48 | 0.14 | 84 | 1015.4 |
| 20260507094752 | 53 | 175 | 0.0 | 5.0 | 0.00 | 0.48 | 0.14 | 84 | 1015.3 |
| 20260507094251 | 53 | 98 | 0.0 | 3.0 | 0.00 | 0.48 | 0.14 | 86 | 1015.3 |
| 20260507093757 | 52 | 64 | 0.0 | 3.0 | 0.00 | 0.48 | 0.14 | 86 | 1015.2 |
| 20260507093253 | 52 | 123 | 0.0 | 4.0 | 0.00 | 0.48 | 0.14 | 86 | 1015.2 |
| 20260507092751 | 52 | 17 | 0.0 | 4.0 | 0.00 | 0.48 | 0.14 | 85 | 1015.2 |
| 20260507092247 | 53 | 215 | 0.0 | 3.0 | 0.00 | 0.48 | 0.14 | 86 | 1015.2 |
| 20260507091740 | 53 | 312 | 0.0 | 2.0 | 0.00 | 0.48 | 0.14 | 87 | 1015.2 |
| 20260507091237 | 53 | 313 | 0.0 | 4.0 | 0.00 | 0.48 | 0.14 | 87 | 1015.1 |
| 20260507090736 | 53 | 183 | 0.0 | 4.0 | 0.00 | 0.48 | 0.14 | 88 | 1014.9 |
| 20260507090237 | 53 | 129 | 0.0 | 5.0 | 0.00 | 0.48 | 0.14 | 88 | 1014.9 |
| 20260507085736 | 53 | 213 | 0.0 | 5.0 | 0.00 | 0.48 | 0.14 | 89 | 1014.7 |
| 20260507085231 | 53 | 288 | 0.0 | 2.0 | 0.00 | 0.48 | 0.14 | 92 | 1014.7 |
| 20260507084732 | 52 | 348 | 0.0 | 2.0 | 0.00 | 0.48 | 0.14 | 92 | 1014.7 |
| 20260507084238 | 51 | 13 | 0.0 | 1.0 | 0.00 | 0.48 | 0.14 | 93 | 1014.7 |
| 20260507083734 | 51 | 13 | 0.0 | 6.0 | 0.01 | 0.48 | 0.14 | 94 | 1014.7 |
| 20260507083231 | 51 | 15 | 0.0 | 6.0 | 0.01 | 0.48 | 0.14 | 93 | 1014.6 |
| 20260507082732 | 51 | 313 | 0.0 | 3.0 | 0.01 | 0.48 | 0.14 | 94 | 1014.6 |
| 20260507082233 | 51 | 180 | 0.0 | 3.0 | 0.01 | 0.48 | 0.14 | 95 | 1014.6 |
| 20260507081732 | 51 | 175 | 0.0 | 3.0 | 0.02 | 0.48 | 0.14 | 96 | 1014.6 |
| 20260507081231 | 50 | 19 | 0.0 | 3.0 | 0.02 | 0.48 | 0.14 | 95 | 1014.5 |
| 20260507080733 | 49 | 302 | 0.0 | 3.0 | 0.02 | 0.48 | 0.14 | 95 | 1014.5 |
| 20260507080237 | 49 | 328 | 0.0 | 3.0 | 0.02 | 0.48 | 0.14 | 95 | 1014.5 |
| 20260507075728 | 49 | 10 | 0.0 | 0.0 | 0.02 | 0.48 | 0.13 | 96 | 1014.4 |
| 20260507075226 | 49 | 5 | 0.0 | 1.0 | 0.02 | 0.48 | 0.13 | 96 | 1014.4 |
| 20260507074725 | 49 | 5 | 0.0 | 1.0 | 0.02 | 0.48 | 0.13 | 96 | 1014.4 |
| 20260507074224 | 49 | 355 | 0.0 | 0.0 | 0.02 | 0.48 | 0.13 | 96 | 1014.3 |
| 20260507073722 | 49 | 351 | 0.0 | 0.0 | 0.01 | 0.47 | 0.13 | 96 | 1014.3 |
| 20260507073219 | 49 | 351 | 0.0 | 0.0 | 0.01 | 0.47 | 0.13 | 96 | 1014.2 |
| 20260507072718 | 49 | 351 | 0.0 | 0.0 | 0.01 | 0.47 | 0.13 | 96 | 1014.2 |
| 20260507072611 | 49 | 12 | 0.0 | 0.0 | 0.01 | 0.47 | 0.13 | 96 | 1014.1 |
| 20260507071722 | 49 | 12 | 0.0 | 0.0 | 0.00 | 0.46 | 0.13 | 95 | 1014.1 |
| 20260507071214 | 49 | 12 | 0.0 | 1.0 | 0.00 | 0.46 | 0.13 | 96 | 1014.0 |
| 20260507070716 | 49 | 12 | 0.0 | 1.0 | 0.01 | 0.46 | 0.13 | 96 | 1013.9 |
| 20260507070215 | 49 | 344 | 0.0 | 1.0 | 0.01 | 0.46 | 0.13 | 96 | 1013.9 |
| 20260507065716 | 49 | 344 | 0.0 | 0.0 | 0.01 | 0.46 | 0.12 | 96 | 1013.8 |
| 20260507065211 | 49 | 341 | 0.0 | 0.0 | 0.01 | 0.46 | 0.12 | 96 | 1013.7 |
| 20260507064713 | 49 | 344 | 0.0 | 0.0 | 0.01 | 0.46 | 0.12 | 96 | 1013.7 |
| 20260507064217 | 49 | 333 | 0.0 | 4.0 | 0.01 | 0.46 | 0.12 | 96 | 1013.7 |
| 20260507063713 | 48 | 332 | 0.0 | 4.0 | 0.01 | 0.46 | 0.12 | 95 | 1013.6 |
| 20260507063210 | 48 | 316 | 0.0 | 4.0 | 0.02 | 0.46 | 0.12 | 96 | 1013.6 |
| 20260507063108 | 48 | 309 | 0.0 | 4.0 | 0.02 | 0.46 | 0.12 | 96 | 1013.6 |
| 20260507062212 | 49 | 355 | 0.0 | 4.0 | 0.02 | 0.46 | 0.12 | 96 | 1013.6 |
| 20260507062004 | 49 | 325 | 0.0 | 3.0 | 0.02 | 0.46 | 0.12 | 96 | 1013.6 |
| 20260507061847 | 49 | 325 | 0.0 | 1.0 | 0.02 | 0.46 | 0.12 | 96 | 1013.5 |
| 20260507061103 | 48 | 325 | 0.0 | 3.0 | 0.02 | 0.46 | 0.12 | 96 | 1013.5 |
| 20260507060213 | 49 | 9 | 0.0 | 0.0 | 0.02 | 0.46 | 0.12 | 96 | 1013.4 |
| 20260507055713 | 49 | 13 | 0.0 | 1.0 | 0.02 | 0.46 | 0.09 | 96 | 1013.3 |
| 20260507055210 | 48 | 16 | 0.0 | 1.0 | 0.03 | 0.46 | 0.09 | 96 | 1013.3 |
| 20260507055102 | 49 | 349 | 0.0 | 1.0 | 0.03 | 0.46 | 0.09 | 96 | 1013.2 |
| 20260507054213 | 48 | 13 | 0.0 | 4.0 | 0.03 | 0.46 | 0.09 | 96 | 1013.1 |
| 20260507053710 | 48 | 13 | 0.0 | 4.0 | 0.03 | 0.46 | 0.09 | 95 | 1013.1 |
| 20260507053212 | 48 | 355 | 0.0 | 0.0 | 0.02 | 0.45 | 0.09 | 96 | 1013.0 |
| 20260507052708 | 48 | 355 | 0.0 | 0.0 | 0.02 | 0.45 | 0.09 | 96 | 1013.0 |
| 20260507052204 | 48 | 355 | 0.0 | 0.0 | 0.03 | 0.45 | 0.09 | 95 | 1013.0 |
| 20260507051703 | 49 | 355 | 0.0 | 0.0 | 0.02 | 0.44 | 0.09 | 95 | 1012.9 |
| 20260507051205 | 49 | 355 | 0.0 | 0.0 | 0.02 | 0.44 | 0.09 | 95 | 1012.8 |
| 20260507050705 | 49 | 339 | 0.0 | 0.0 | 0.02 | 0.44 | 0.09 | 95 | 1012.7 |
| 20260507050203 | 49 | 339 | 0.0 | 3.0 | 0.02 | 0.43 | 0.09 | 95 | 1012.7 |
| 20260507045708 | 49 | 339 | 0.0 | 3.0 | 0.02 | 0.43 | 0.08 | 95 | 1012.6 |
| 20260507045204 | 49 | 325 | 0.0 | 0.0 | 0.01 | 0.43 | 0.08 | 95 | 1012.5 |
| 20260507044703 | 49 | 325 | 0.0 | 0.0 | 0.01 | 0.43 | 0.08 | 95 | 1012.5 |
| 20260507044157 | 49 | 101 | 0.0 | 1.0 | 0.01 | 0.43 | 0.08 | 95 | 1012.4 |
| 20260507043655 | 49 | 105 | 0.0 | 1.0 | 0.01 | 0.43 | 0.08 | 95 | 1012.3 |
| 20260507043141 | 49 | 121 | 0.0 | 0.0 | 0.02 | 0.43 | 0.08 | 95 | 1012.2 |
| 20260507042642 | 49 | 121 | 0.0 | 0.0 | 0.02 | 0.43 | 0.08 | 95 | 1012.1 |
| 20260507042141 | 49 | 121 | 0.0 | 0.0 | 0.01 | 0.42 | 0.08 | 95 | 1012.1 |
| 20260507041643 | 49 | 124 | 0.0 | 0.0 | 0.01 | 0.42 | 0.08 | 95 | 1012.0 |
| 20260507041140 | 49 | 124 | 0.0 | 0.0 | 0.02 | 0.42 | 0.08 | 95 | 1012.0 |
| 20260507041055 | 49 | 236 | 0.0 | 1.0 | 0.02 | 0.42 | 0.08 | 95 | 1011.9 |
| 20260507040140 | 49 | 217 | 0.0 | 1.0 | 0.02 | 0.42 | 0.08 | 95 | 1011.9 |
| 20260507035635 | 49 | 0 | 0.0 | 1.0 | 0.02 | 0.42 | 0.06 | 95 | 1011.8 |
| 20260507035133 | 49 | 5 | 0.0 | 1.0 | 0.02 | 0.42 | 0.06 | 95 | 1011.8 |
| 20260507034633 | 49 | 343 | 0.0 | 1.0 | 0.02 | 0.42 | 0.06 | 95 | 1011.7 |
| 20260507034132 | 49 | 323 | 0.0 | 0.0 | 0.02 | 0.42 | 0.06 | 95 | 1011.7 |
| 20260507034038 | 49 | 325 | 0.0 | 0.0 | 0.02 | 0.42 | 0.06 | 95 | 1011.6 |
| 20260507033132 | 49 | 73 | 0.0 | 2.0 | 0.02 | 0.41 | 0.06 | 95 | 1011.6 |
| 20260507032630 | 49 | 9 | 0.0 | 2.0 | 0.02 | 0.42 | 0.06 | 95 | 1011.6 |
| 20260507032137 | 50 | 308 | 0.0 | 0.0 | 0.02 | 0.42 | 0.06 | 95 | 1011.5 |
| 20260507032051 | 50 | 308 | 0.0 | 0.0 | 0.02 | 0.42 | 0.06 | 95 | 1011.5 |
| 20260507031132 | 50 | 308 | 0.0 | 1.0 | 0.02 | 0.41 | 0.06 | 94 | 1011.5 |
| 20260507030630 | 50 | 310 | 0.0 | 4.0 | 0.02 | 0.41 | 0.06 | 94 | 1011.4 |
| 20260507030516 | 50 | 13 | 0.0 | 4.0 | 0.02 | 0.41 | 0.06 | 94 | 1011.4 |
| 20260507025636 | 50 | 25 | 0.0 | 4.0 | 0.02 | 0.41 | 0.05 | 93 | 1011.3 |
| 20260507025129 | 50 | 43 | 0.0 | 8.0 | 0.01 | 0.40 | 0.05 | 93 | 1011.2 |
| 20260507025016 | 50 | 292 | 0.0 | 8.0 | 0.01 | 0.40 | 0.05 | 93 | 1011.2 |
| 20260507024112 | 50 | 196 | 0.0 | 3.0 | 0.01 | 0.40 | 0.05 | 94 | 1011.1 |
| 20260507023911 | 50 | 165 | 0.0 | 2.0 | 0.01 | 0.40 | 0.05 | 94 | 1011.1 |
| 20260507023745 | 50 | 175 | 0.0 | 3.0 | 0.01 | 0.40 | 0.05 | 93 | 1011.1 |
| 20260507022619 | 50 | 229 | 0.0 | 2.0 | 0.01 | 0.40 | 0.05 | 94 | 1011.0 |
| 20260507022110 | 50 | 183 | 0.0 | 2.0 | 0.01 | 0.39 | 0.05 | 94 | 1011.0 |
| 20260507021609 | 50 | 218 | 0.0 | 1.0 | 0.01 | 0.39 | 0.05 | 95 | 1010.9 |
| 20260507021459 | 50 | 218 | 0.0 | 1.0 | 0.01 | 0.39 | 0.05 | 95 | 1011.0 |
| 20260507020606 | 50 | 286 | 0.0 | 0.0 | 0.01 | 0.39 | 0.05 | 95 | 1010.9 |
| 20260507020111 | 50 | 286 | 0.0 | 0.0 | 0.02 | 0.39 | 0.05 | 95 | 1010.9 |
| 20260507015604 | 50 | 286 | 0.0 | 0.0 | 0.02 | 0.39 | 0.03 | 95 | 1010.7 |
| 20260507015112 | 50 | 286 | 0.0 | 0.0 | 0.02 | 0.39 | 0.03 | 95 | 1010.7 |
| 20260507014614 | 50 | 286 | 0.0 | 0.0 | 0.02 | 0.39 | 0.03 | 95 | 1010.6 |
| 20260507014103 | 50 | 286 | 0.0 | 0.0 | 0.02 | 0.39 | 0.03 | 95 | 1010.6 |
| 20260507013602 | 50 | 286 | 0.0 | 0.0 | 0.02 | 0.39 | 0.03 | 95 | 1010.6 |
| 20260507013103 | 50 | 286 | 0.0 | 0.0 | 0.02 | 0.39 | 0.03 | 95 | 1010.6 |
| 20260507012600 | 50 | 286 | 0.0 | 0.0 | 0.02 | 0.39 | 0.03 | 95 | 1010.5 |
| 20260507012110 | 50 | 286 | 0.0 | 0.0 | 0.02 | 0.39 | 0.03 | 95 | 1010.5 |
| 20260507011547 | 50 | 286 | 0.0 | 0.0 | 0.02 | 0.39 | 0.03 | 95 | 1010.5 |
| 20260507011048 | 50 | 286 | 0.0 | 0.0 | 0.02 | 0.39 | 0.03 | 95 | 1010.5 |
| 20260507010544 | 50 | 286 | 0.0 | 0.0 | 0.02 | 0.39 | 0.03 | 95 | 1010.5 |
| 20260507010044 | 50 | 286 | 0.0 | 0.0 | 0.01 | 0.38 | 0.03 | 95 | 1010.5 |
| 20260507005941 | 50 | 286 | 0.0 | 0.0 | 0.01 | 0.38 | 0.02 | 95 | 1010.4 |
| 20260507005054 | 50 | 286 | 0.0 | 0.0 | 0.02 | 0.38 | 0.02 | 94 | 1010.4 |
| 20260507004543 | 50 | 286 | 0.0 | 0.0 | 0.02 | 0.38 | 0.02 | 94 | 1010.4 |
| 20260507004046 | 50 | 286 | 0.0 | 0.0 | 0.01 | 0.37 | 0.02 | 94 | 1010.4 |
| 20260507003541 | 50 | 286 | 0.0 | 0.0 | 0.02 | 0.37 | 0.02 | 94 | 1010.5 |
| 20260507003041 | 50 | 286 | 0.0 | 0.0 | 0.02 | 0.37 | 0.02 | 93 | 1010.4 |
| 20260507002932 | 50 | 286 | 0.0 | 0.0 | 0.02 | 0.37 | 0.02 | 93 | 1010.4 |
| 20260507002433 | 50 | 286 | 0.0 | 0.0 | 0.02 | 0.37 | 0.02 | 94 | 1010.4 |
| 20260507002040 | 50 | 286 | 0.0 | 0.0 | 0.02 | 0.37 | 0.02 | 93 | 1010.4 |
| 20260507001045 | 50 | 286 | 0.0 | 0.0 | 0.02 | 0.37 | 0.02 | 94 | 1010.3 |
| 20260507000537 | 50 | 286 | 0.0 | 0.0 | 0.02 | 0.37 | 0.02 | 93 | 1010.4 |
| 20260507000454 | 50 | 286 | 0.0 | 0.0 | 0.02 | 0.37 | 0.02 | 93 | 1010.4 |
| 20260506235531 | 50 | 286 | 0.0 | 1.0 | 0.02 | 0.37 | 0.01 | 93 | 1010.4 |
| 20260506235412 | 50 | 286 | 0.0 | 1.0 | 0.01 | 0.36 | 0.01 | 93 | 1010.4 |
| 20260506234532 | 50 | 292 | 0.0 | 0.0 | 0.01 | 0.36 | 0.01 | 92 | 1010.4 |
| 20260506234320 | 50 | 198 | 0.0 | 1.0 | 0.01 | 0.35 | 0.01 | 92 | 1010.4 |
| 20260506234211 | 50 | 292 | 0.0 | 0.0 | 0.02 | 0.36 | 0.01 | 92 | 1010.5 |
| 20260506233032 | 51 | 204 | 0.0 | 3.0 | 0.01 | 0.35 | 0.01 | 92 | 1010.5 |
| 20260506232532 | 51 | 187 | 0.0 | 3.0 | 0.01 | 0.35 | 0.01 | 91 | 1010.5 |
| 20260506232035 | 51 | 224 | 0.0 | 1.0 | 0.01 | 0.35 | 0.01 | 91 | 1010.6 |
| 20260506232021 | 51 | 267 | 0.0 | 1.0 | 0.01 | 0.35 | 0.01 | 92 | 1010.5 |
| 20260506231032 | 51 | 176 | 0.0 | 1.0 | 0.01 | 0.35 | 0.01 | 92 | 1010.4 |
| 20260506230954 | 51 | 176 | 0.0 | 1.0 | 0.01 | 0.35 | 0.01 | 92 | 1010.5 |
| 20260506230033 | 51 | 355 | 0.0 | 0.0 | 0.01 | 0.35 | 0.01 | 92 | 1010.4 |
| 20260506225955 | 51 | 172 | 0.0 | 1.0 | 0.01 | 0.35 | 0.00 | 92 | 1010.5 |
| 20260506225032 | 51 | 172 | 0.0 | 1.0 | 0.01 | 0.35 | 0.00 | 92 | 1010.4 |
| 20260506225026 | 51 | 172 | 0.0 | 1.0 | 0.01 | 0.35 | 0.00 | 92 | 1010.4 |
| 20260506224455 | 51 | 171 | 0.0 | 1.0 | 0.00 | 0.35 | 0.00 | 92 | 1010.4 |
| 20260506223534 | 51 | 169 | 0.0 | 1.0 | 0.00 | 0.35 | 0.00 | 92 | 1010.3 |
| 20260506223031 | 51 | 178 | 0.0 | 1.0 | 0.00 | 0.35 | 0.00 | 92 | 1010.3 |
| 20260506222534 | 51 | 128 | 0.0 | 2.0 | 0.00 | 0.35 | 0.00 | 91 | 1010.2 |
| 20260506222149 | 51 | 173 | 0.0 | 6.0 | 0.00 | 0.35 | 0.00 | 91 | 1010.0 |
| 20260506222050 | 51 | 146 | 0.0 | 2.0 | 0.00 | 0.35 | 0.00 | 91 | 1010.2 |
| 20260506221137 | 51 | 343 | 0.0 | 6.0 | 0.01 | 0.35 | 0.00 | 91 | 1010.0 |
| 20260506221126 | 51 | 126 | 0.0 | 6.0 | 0.01 | 0.35 | 0.34 | 91 | 1009.9 |
| 20260506221035 | 51 | 182 | 0.0 | 6.0 | 0.00 | 0.35 | 0.00 | 91 | 1010.0 |
| 20260506215458 | 51 | 189 | 0.0 | 1.0 | 0.02 | 0.35 | 0.34 | 91 | 1009.9 |
| 20260506215039 | 51 | 348 | 0.0 | 5.0 | 0.02 | 0.35 | 0.34 | 91 | 1009.8 |
| 20260506215009 | 51 | 22 | 0.0 | 2.0 | 0.02 | 0.35 | 0.34 | 91 | 1009.8 |
| 20260506213955 | 52 | 207 | 0.0 | 6.0 | 0.03 | 0.35 | 0.34 | 91 | 1009.8 |
| 20260506213449 | 52 | 312 | 0.0 | 6.0 | 0.04 | 0.35 | 0.34 | 92 | 1009.7 |
| 20260506213001 | 52 | 44 | 0.0 | 1.0 | 0.05 | 0.35 | 0.34 | 93 | 1009.7 |
| 20260506212523 | 52 | 170 | 0.0 | 5.0 | 0.07 | 0.35 | 0.34 | 93 | 1009.7 |
| 20260506212501 | 52 | 200 | 0.0 | 1.0 | 0.06 | 0.35 | 0.34 | 93 | 1009.7 |
| 20260506211515 | 52 | 207 | 0.0 | 6.0 | 0.09 | 0.35 | 0.34 | 93 | 1009.6 |
| 20260506211457 | 52 | 192 | 0.0 | 6.0 | 0.08 | 0.35 | 0.34 | 93 | 1009.6 |
| 20260506210453 | 52 | 215 | 0.0 | 4.0 | 0.09 | 0.34 | 0.34 | 93 | 1009.5 |
| 20260506205946 | 52 | 151 | 0.0 | 4.0 | 0.10 | 0.34 | 0.24 | 93 | 1009.5 |
| 20260506205444 | 52 | 175 | 0.0 | 4.0 | 0.11 | 0.33 | 0.24 | 93 | 1009.5 |
| 20260506204937 | 52 | 175 | 0.0 | 6.0 | 0.11 | 0.32 | 0.24 | 93 | 1009.6 |
| 20260506204440 | 52 | 163 | 0.0 | 6.0 | 0.11 | 0.32 | 0.24 | 94 | 1009.6 |
| 20260506203956 | 52 | 207 | 0.0 | 6.0 | 0.11 | 0.31 | 0.24 | 94 | 1009.6 |
| 20260506203437 | 52 | 157 | 1.0 | 6.0 | 0.10 | 0.31 | 0.24 | 94 | 1009.5 |
| 20260506202933 | 52 | 181 | 0.0 | 4.0 | 0.10 | 0.30 | 0.24 | 94 | 1009.5 |
| 20260506202432 | 52 | 139 | 0.0 | 4.0 | 0.09 | 0.28 | 0.24 | 94 | 1009.5 |
| 20260506202337 | 52 | 190 | 0.0 | 1.0 | 0.09 | 0.28 | 0.24 | 94 | 1009.5 |
| 20260506201429 | 52 | 193 | 0.0 | 1.0 | 0.08 | 0.27 | 0.24 | 94 | 1009.5 |
| 20260506200930 | 53 | 172 | 0.0 | 5.0 | 0.08 | 0.26 | 0.24 | 93 | 1009.4 |
| 20260506200430 | 53 | 184 | 0.0 | 5.0 | 0.06 | 0.24 | 0.24 | 93 | 1009.4 |
| 20260506195933 | 53 | 212 | 0.0 | 4.0 | 0.06 | 0.24 | 0.17 | 94 | 1009.4 |
| 20260506195428 | 53 | 217 | 0.0 | 4.0 | 0.05 | 0.22 | 0.17 | 94 | 1009.4 |
| 20260506195338 | 53 | 186 | 0.0 | 3.0 | 0.05 | 0.21 | 0.17 | 93 | 1009.3 |
| 20260506194426 | 53 | 190 | 0.0 | 3.0 | 0.05 | 0.21 | 0.17 | 93 | 1009.2 |
| 20260506193924 | 53 | 167 | 0.0 | 4.0 | 0.05 | 0.20 | 0.17 | 93 | 1009.2 |
| 20260506193422 | 53 | 181 | 0.0 | 4.0 | 0.05 | 0.20 | 0.17 | 93 | 1009.0 |
| 20260506192918 | 53 | 192 | 0.0 | 5.0 | 0.04 | 0.20 | 0.17 | 93 | 1009.0 |
| 20260506192853 | 53 | 192 | 0.0 | 5.0 | 0.04 | 0.20 | 0.17 | 93 | 1008.9 |
| 20260506191928 | 53 | 188 | 0.0 | 1.0 | 0.03 | 0.19 | 0.17 | 93 | 1008.8 |
| 20260506191421 | 53 | 152 | 0.0 | 1.0 | 0.04 | 0.19 | 0.17 | 93 | 1008.7 |
| 20260506190921 | 54 | 148 | 0.0 | 1.0 | 0.03 | 0.18 | 0.17 | 93 | 1008.6 |
| 20260506190420 | 54 | 146 | 0.0 | 6.0 | 0.03 | 0.18 | 0.17 | 93 | 1008.6 |
| 20260506185921 | 54 | 146 | 0.0 | 6.0 | 0.02 | 0.17 | 0.15 | 93 | 1008.5 |
| 20260506185417 | 54 | 329 | 0.0 | 3.0 | 0.02 | 0.17 | 0.15 | 93 | 1008.5 |
| 20260506184918 | 54 | 350 | 0.0 | 3.0 | 0.02 | 0.17 | 0.15 | 92 | 1008.4 |
| 20260506184420 | 54 | 169 | 0.0 | 3.0 | 0.02 | 0.17 | 0.15 | 92 | 1008.3 |
| 20260506183912 | 54 | 155 | 0.0 | 2.0 | 0.01 | 0.16 | 0.15 | 92 | 1008.2 |
| 20260506183411 | 54 | 171 | 0.0 | 2.0 | 0.01 | 0.16 | 0.15 | 92 | 1008.1 |
| 20260506182908 | 54 | 241 | 0.0 | 4.0 | 0.01 | 0.16 | 0.15 | 92 | 1008.1 |
| 20260506182745 | 54 | 173 | 0.0 | 4.0 | 0.01 | 0.16 | 0.15 | 92 | 1008.0 |
| 20260506181905 | 55 | 175 | 0.0 | 3.0 | 0.01 | 0.16 | 0.15 | 92 | 1008.0 |
| 20260506181820 | 55 | 196 | 0.0 | 1.0 | 0.00 | 0.16 | 0.15 | 92 | 1007.9 |
| 20260506180904 | 55 | 201 | 0.0 | 1.0 | 0.00 | 0.16 | 0.15 | 92 | 1008.0 |
| 20260506180403 | 55 | 201 | 0.0 | 4.0 | 0.00 | 0.16 | 0.15 | 91 | 1007.9 |
| 20260506175912 | 55 | 161 | 0.0 | 4.0 | 0.00 | 0.16 | 0.15 | 92 | 1007.9 |
| 20260506175410 | 55 | 186 | 0.0 | 4.0 | 0.00 | 0.16 | 0.15 | 91 | 1007.9 |
| 20260506174905 | 55 | 188 | 0.0 | 4.0 | 0.00 | 0.17 | 0.15 | 91 | 1007.8 |
| 20260506174415 | 55 | 190 | 0.0 | 1.0 | 0.00 | 0.17 | 0.15 | 92 | 1007.7 |
| 20260506173902 | 55 | 190 | 0.0 | 1.0 | 0.00 | 0.17 | 0.15 | 92 | 1007.7 |
| 20260506173826 | 55 | 189 | 0.0 | 0.0 | 0.00 | 0.18 | 0.15 | 92 | 1007.7 |
| 20260506172902 | 55 | 190 | 0.0 | 1.0 | 0.01 | 0.19 | 0.15 | 92 | 1007.7 |
| 20260506172401 | 55 | 200 | 0.0 | 1.0 | 0.01 | 0.19 | 0.15 | 92 | 1007.7 |
| 20260506172256 | 55 | 201 | 0.0 | 1.0 | 0.01 | 0.19 | 0.15 | 93 | 1007.7 |
| 20260506171413 | 55 | 229 | 0.0 | 1.0 | 0.01 | 0.19 | 0.15 | 93 | 1007.7 |
| 20260506171341 | 55 | 229 | 0.0 | 0.0 | 0.01 | 0.19 | 0.14 | 93 | 1007.7 |
| 20260506171331 | 55 | 229 | 0.0 | 0.0 | 0.01 | 0.19 | 0.15 | 93 | 1007.6 |
| 20260506170909 | 55 | 229 | 0.0 | 0.0 | 0.01 | 0.19 | 0.15 | 93 | 1007.7 |
| 20260506165402 | 55 | 306 | 0.0 | 0.0 | 0.01 | 0.19 | 0.14 | 93 | 1007.6 |
| 20260506164901 | 55 | 306 | 0.0 | 3.0 | 0.01 | 0.19 | 0.14 | 93 | 1007.7 |
| 20260506164406 | 55 | 306 | 0.0 | 3.0 | 0.01 | 0.19 | 0.14 | 93 | 1007.7 |
| 20260506163902 | 55 | 306 | 0.0 | 3.0 | 0.01 | 0.19 | 0.14 | 93 | 1007.6 |
| 20260506163402 | 55 | 313 | 0.0 | 3.0 | 0.01 | 0.19 | 0.14 | 93 | 1007.7 |
| 20260506162902 | 55 | 51 | 0.0 | 1.0 | 0.00 | 0.18 | 0.14 | 93 | 1007.7 |
| 20260506162402 | 55 | 185 | 0.0 | 0.0 | 0.00 | 0.18 | 0.14 | 93 | 1007.7 |
| 20260506162312 | 54 | 254 | 0.0 | 1.0 | 0.01 | 0.18 | 0.14 | 93 | 1007.7 |
| 20260506161403 | 54 | 210 | 0.0 | 1.0 | 0.01 | 0.18 | 0.14 | 93 | 1007.7 |
| 20260506160904 | 54 | 313 | 0.0 | 2.0 | 0.01 | 0.18 | 0.14 | 93 | 1007.7 |
| 20260506160403 | 54 | 198 | 0.0 | 2.0 | 0.02 | 0.18 | 0.14 | 93 | 1007.7 |
| 20260506155903 | 54 | 126 | 0.0 | 3.0 | 0.02 | 0.18 | 0.13 | 93 | 1007.6 |
| 20260506155402 | 54 | 307 | 0.0 | 3.0 | 0.02 | 0.18 | 0.13 | 93 | 1007.6 |
| 20260506154905 | 54 | 325 | 0.0 | 2.0 | 0.02 | 0.18 | 0.13 | 93 | 1007.6 |
| 20260506154402 | 54 | 67 | 0.0 | 1.0 | 0.02 | 0.18 | 0.13 | 93 | 1007.6 |
| 20260506153903 | 55 | 111 | 0.0 | 1.0 | 0.02 | 0.18 | 0.13 | 94 | 1007.5 |
| 20260506153406 | 55 | 13 | 0.0 | 1.0 | 0.04 | 0.18 | 0.13 | 94 | 1007.5 |
| 20260506152902 | 55 | 355 | 0.0 | 1.0 | 0.05 | 0.18 | 0.13 | 94 | 1007.4 |
| 20260506152401 | 55 | 315 | 0.0 | 1.0 | 0.06 | 0.18 | 0.13 | 94 | 1007.3 |
| 20260506151901 | 55 | 17 | 0.0 | 4.0 | 0.09 | 0.17 | 0.13 | 94 | 1007.3 |
| 20260506151411 | 55 | 321 | 0.0 | 4.0 | 0.10 | 0.17 | 0.13 | 93 | 1007.3 |
| 20260506151402 | 55 | 322 | 0.0 | 4.0 | 0.10 | 0.17 | 0.13 | 94 | 1007.3 |
| 20260506150403 | 55 | 323 | 1.0 | 5.0 | 0.10 | 0.17 | 0.13 | 93 | 1007.3 |
| 20260506150140 | 55 | 18 | 0.0 | 4.0 | 0.10 | 0.17 | 0.02 | 93 | 1007.3 |
| 20260506145949 | 55 | 24 | 1.0 | 5.0 | 0.11 | 0.17 | 0.02 | 93 | 1007.3 |
| 20260506144903 | 55 | 308 | 0.0 | 4.0 | 0.11 | 0.17 | 0.02 | 93 | 1007.3 |
| 20260506144402 | 55 | 329 | 0.0 | 4.0 | 0.11 | 0.17 | 0.02 | 93 | 1007.3 |
| 20260506143902 | 55 | 63 | 0.0 | 1.0 | 0.11 | 0.17 | 0.02 | 93 | 1007.4 |
| 20260506143404 | 54 | 90 | 0.0 | 1.0 | 0.09 | 0.15 | 0.02 | 93 | 1007.3 |
| 20260506142901 | 54 | 97 | 0.0 | 1.0 | 0.09 | 0.14 | 0.02 | 92 | 1007.4 |
| 20260506142403 | 54 | 347 | 0.0 | 5.0 | 0.07 | 0.13 | 0.02 | 91 | 1007.5 |
| 20260506141902 | 54 | 348 | 0.0 | 5.0 | 0.04 | 0.09 | 0.02 | 91 | 1007.6 |
| 20260506141402 | 55 | 77 | 0.0 | 5.0 | 0.02 | 0.09 | 0.02 | 90 | 1007.6 |
| 20260506141348 | 55 | 184 | 1.0 | 7.0 | 0.02 | 0.09 | 0.02 | 89 | 1007.5 |
| 20260506140848 | 56 | 181 | 1.0 | 7.0 | 0.02 | 0.09 | 0.02 | 88 | 1007.3 |